Home   Weather   Stonewall   Past weeks

Flag for Canada Past Weather in Stonewall, Manitoba, Canada — Yesterday and Last 2 Weeks

Now
55 °F

Clear.


Feels Like: 54 °F
Forecast: 53 / 81 °F
Wind: 7 mph from East

Location: Winnipeg Int. Airportman.

Current Time: Sep 1, 2016 at 12:44:26 AM

Latest Report: Sep 1, 2016 at 12:00 AM


Visibility: 15 mi

Pressure: 30.27 "Hg

Humidity: 88%

Dew Point: 52 °F

Location of StonewallLocation

Past Weather in Stonewall — Graph

°F

Stonewall Temperature Yesterday

Maximum temperature yesterday: 68 °F (at 2:00 PM)
Minimum temperature yesterday: 46 °F (at 6:00 AM)
Average temperature yesterday: 58 °F

High & Low Weather Summary for the Past Weeks

 TemperatureHumidityPressure
High88 °F (Aug 22, 3:00 PM)100% (Aug 17, 1:00 AM)30.32 "Hg (Aug 17, 1:00 AM)
Low46 °F (Aug 21, 6:00 AM)29% (Aug 30, 5:00 PM)29.62 "Hg (Aug 23, 7:00 PM)
Average65 °F73%29.94 "Hg
* Reported Aug 16 11:00 PM — Aug 31 11:00 PM, Stonewall, Weather by CustomWeather, © 2016

Note: Actual official high and low records may vary slightly from our data, if they occured in-between our weather recording intervals... More about our weather records

Advertising

Stonewall Weather History for the Previous 24 Hours

Scroll right to see more
 ConditionsComfort  
Time TempWeatherWind HumidityBarometerVisibility
11:00 PM
Wed, Aug 31
57 °FClear.7 mph88%30.27 "Hg15 mi
10:00 PM57 °FClear.9 mph88%30.27 "Hg15 mi
9:00 PM59 °FScattered clouds.9 mph82%30.27 "Hg15 mi
8:00 PM63 °FPartly sunny.9 mph73%30.27 "Hg15 mi
7:00 PM66 °FPartly sunny.5 mph64%30.27 "Hg15 mi
6:00 PM66 °FPartly sunny.9 mph64%30.27 "Hg15 mi
5:00 PM68 °FPartly sunny.6 mph60%30.26 "Hg15 mi
4:00 PM66 °FPartly sunny.12 mph64%30.28 "Hg15 mi
3:00 PM66 °FPartly sunny.12 mph68%30.30 "Hg15 mi
2:00 PM68 °FPartly sunny.6 mph60%30.30 "Hg15 mi
1:00 PM66 °FBroken clouds.7 mph68%30.31 "Hg15 mi
12:00 PM66 °FBroken clouds.5 mph60%30.32 "Hg15 mi
11:00 AM64 °FPartly sunny.2 mph68%30.32 "Hg15 mi
10:00 AM61 °FPartly sunny.5 mph83%30.32 "Hg15 mi
9:00 AM57 °FPartly sunny.6 mph88%30.32 "Hg15 mi
8:00 AM48 °FPartly sunny.3 mph94%30.32 "Hg15 mi
7:00 AM46 °FFog.No wind100%30.32 "Hg15 mi
6:00 AM46 °FPassing clouds.3 mph100%30.30 "Hg15 mi
5:00 AM48 °FClear.3 mph100%30.29 "Hg15 mi
4:00 AM48 °FClear.2 mph100%30.29 "Hg15 mi
3:00 AM50 °FClear.5 mph94%30.28 "Hg15 mi
2:00 AM48 °FPassing clouds.5 mph100%30.28 "Hg15 mi
1:00 AM50 °FPassing clouds.5 mph94%30.27 "Hg15 mi
12:00 AM55 °FPassing clouds.7 mph82%30.26 "Hg15 mi
Weather by CustomWeather, © 2016

See weather overviewHow to use our weather pages